Regional Weather Roundup
Issued by NWS

Home | Current Version | Previous Version | Text Only | Print | Product List | Glossary Off
Versions: 1 2 3 4 5 6 7 8 9 10 11 12 13 14 15 16 17 18 19 20 21 22 23 24 25 26 27 28 29 30 31 32 33 34 35 36 37 38 39 40 41 42 43 44 45 46 47 48 49 50

000
ASUS43 KMKX 271310
RWRWI

WISCONSIN REGIONAL WEATHER ROUNDUP
NATIONAL WEATHER SERVICE MILWAUKEE/SULLIVAN WI
800 AM CDT WED MAY 27 2015

NOTE: "FAIR" INDICATES FEW OR NO CLOUDS BELOW 12,000 FEET WITH NO
SIGNIFICANT WEATHER AND/OR OBSTRUCTIONS TO VISIBILITY.

WIZ001-002-006>008-014>016-023>028-271400-
NORTHWEST WISCONSIN

CITY           SKY/WX    TMP DP  RH WIND       PRES   REMARKS
SUPERIOR ARPT  PTSUNNY   55  52  88 SW7       29.82S
ASHLAND        CLOUDY    57  54  89 SW8       29.83R
HAYWARD        CLOUDY    54  52  93 S7        29.87R
SIREN          SUNNY     56  54  92 SW6       29.88R
CUMBERLAND     PTSUNNY   52  52 100 SW5       29.89R
RICE LAKE      PTSUNNY   55  53  94 CALM      29.91R
CHETEK         PTSUNNY   55  54  99 SW3       29.90R
LADYSMITH      CLOUDY    55  54  96 SW3       29.89R
EAU CLAIRE     CLOUDY    58  55  90 SW8       29.91R
MENOMONIE      PTSUNNY   57  57  99 SW5       29.92R FOG
NEW RICHMOND   SUNNY     57  57 100 SW6       29.91R
OSCEOLA        MOSUNNY   58  58 100 SW3       29.93R
$$

WIZ003>005-009-010-017-018-271400-
NORTH CENTRAL WISCONSIN

CITY           SKY/WX    TMP DP  RH WIND       PRES   REMARKS
MANITOWISH WTR CLOUDY    53  53 100 W3        29.84R
ARBOR VITAE    CLOUDY    57  55  95 W3        29.84R
WOODRUFF       CLOUDY    57  55  95 W3        29.84R
RHINELANDER    LGT RAIN  54  52  93 W6        29.86R
EAGLE RIVER    DRIZZLE   54  53  99 W5        29.83R
LAND O LAKES   LGT RAIN  55  54  97 CALM      29.84R
PHILLIPS       LGT RAIN  53  53 100 CALM      29.87R
TOMAHAWK       LGT RAIN  53  52  97 W5        29.86R
MEDFORD        LGT RAIN  54  53  98 W5        29.87R
MERRILL        RAIN      54  54 100 NW3       29.86R
$$

WIZ029-030-035-036-043>047-271400-
CENTRAL WISCONSIN

CITY           SKY/WX    TMP DP  RH WIND       PRES   REMARKS
WAUSAU         LGT RAIN  55  54  96 W6        29.86R
MOSINEE        NOT AVBL
MARSHFIELD     LGT RAIN  57  53  86 W8G17     29.90R
STEVENS POINT  CLOUDY    55  53  94 W7        29.88R
WAUPACA        CLOUDY    62  58  84 W10G17    29.85R
WAUTOMA        NOT AVBL
WISC RAPIDS    CLOUDY    57  54  89 NW9       29.90R
CAMP DOUGLAS   NOT AVBL
$$

WIZ011>013-019>022-031-037>040-048>050-271400-
NORTHEAST WISCONSIN

CITY           SKY/WX    TMP DP  RH WIND       PRES   REMARKS
ANTIGO         DRIZZLE   53  53  99 W10       29.84R
SHAWANO        RAIN      58  55  90 W7        29.82R
OCONTO         CLOUDY    57  57 100 W9        29.78R
STURGEON BAY   CLOUDY    57  54  88 W12       29.80R
GREEN BAY      CLOUDY    61  56  83 W13       29.82R
MANITOWOC      NOT AVBL
APPLETON       CLOUDY    61  54  77 W14       29.84
CLINTONVILLE   CLOUDY    59  55  88 W13       29.83R
OSHKOSH        CLOUDY    62  56  80 W10       29.85R
$$

WIZ032>034-041-042-053>061-271400-
SOUTHWEST WISCONSIN

CITY           SKY/WX    TMP DP  RH WIND       PRES   REMARKS
LA CROSSE      PTSUNNY   62  57  83 NW6       29.94R
SPARTA         CLOUDY    58  56  92 W5        29.93R
VIROQUA        CLOUDY    58  58 100 W6        29.93R
BOSCOBEL       LGT RAIN  61  57  87 NW8       29.93R FOG
PRAIRIE DU CHI CLOUDY    60  56  85 W7        29.94R
PLATTEVILLE    CLOUDY    61  59  94 W14       29.93R
$$

WIZ056-057-062-063-064-067-068-271400-
SOUTH CENTRAL WISCONSIN

CITY           SKY/WX    TMP DP  RH WIND       PRES   REMARKS
REEDSBURG      CLOUDY    58  57  96 W8        29.90R
BARABOO/DELLS  CLOUDY    58  56  91 W8        29.89R
LONE ROCK      NOT AVBL
MINERAL POINT  CLOUDY    61  59  94 W9        29.92R
MADISON        CLOUDY    62  57  83 W6        29.89R
MIDDLETON      CLOUDY    63  60  90 W9        29.90R
WATERTOWN      CLOUDY   N/A N/A N/A SW6       29.88R
MONROE         DRIZZLE   59  59 100 W9        29.91R
JANESVILLE     LGT RAIN  63  61  94 W8        29.90R
$$

WIZ051-052-058>065-066-070>072-271400-
SOUTHEAST WISCONSIN

CITY           SKY/WX    TMP DP  RH WIND       PRES   REMARKS
MILWAUKEE      PTSUNNY   64  57  78 W12       29.88R
WAUKESHA       CLOUDY    61  57  88 SW9       29.90R
MILWAUKEE/TIMM PTSUNNY   63  57  82 W12       29.88S
RACINE         MOSUNNY   65  60  84 W7        29.90R
BURLINGTON     PTSUNNY   62  59  91 W8        29.89S
KENOSHA        CLOUDY    66  62  87 SW14      29.89R
FOND DU LAC    PTSUNNY   63  57  81 W12       29.86R
SHEBOYGAN      MOSUNNY   65  57  75 W16G23    29.84R
WEST BEND      MOSUNNY   63  55  77 SW13      29.86R
JUNEAU         CLOUDY    60  58  91 SW10      29.89R
$$

LSZ147-162-271400-
LAKE SUPERIOR

STATION/POSITION TIME  TEMP    WIND        PRES    WAVE
                       AIR SEA DIR/SP/G            HT/PER
                 (UTC) (F)     (DEG/KT/KT) (MB)    (FT/S)
W MID LAKE BUOY  1150   42 37  230/ 12/ 14 1081.0R   1
DEVILS ISLAND    1200   52     240/ 15/ 17 1088.0R
PORT WING        1200   56     190/  5/  8   N/A
SAXON HARBOR     1200   55     190/  5/  8   N/A
$$

LMZ867-665-643>646-271400-
LAKE MICHIGAN

STATION/POSITION TIME  TEMP    WIND        PRES    WAVE
                       AIR SEA DIR/SP/G            HT/PER
                 (UTC) (F)     (DEG/KT/KT) (MB)    (FT/S)
CHAMBERS ISLAND  1200   57     290/  5/  7 1075.0R
N MID LAKE BUOY  1150   44 37  250/ 14/ 16 1065.0R   5/ 6
NORTHPORT PIER   1200   53     300/  4/ 11 1071.0R
SISTER BAY       1233   55     330/ 10/ 12   N/A
ALGOMA LAKESHORE 1223          290/ 15/ 23   N/A
KEWAUNEE LAKESHO 1200   62     250/ 11/ 18 1078.0R
SHEBOYGAN LAKESH 1200   63     240/ 15/ 17   N/A
PORT WASHINGTON  1200   65     250/ 10/ 15   N/A
ATWATER BUOY     1200   61 45  250/ 14/ 16   N/A
MILWAUKEE LAKESH 1200   64     250/ 11/ 15   N/A
S MID LAKE BUOY  1150   48 38  210/ 14/ 16   N/A     1/ 4
$$

TC  - TEMPERATURE IN CELSIUS
VSB - VISIBILITY IN STATUTE MILES
WCI - WIND CHILL INDEX
HX  - HEAT INDEX




USA.gov is the U.S. government's official web portal to all federal, state and local government web resources and services.